Location: Unspecified
(0.0000°N, 0.0000°E)
Time: 08:29:19
(UTC+00:00)

deb r/b Ablestar - Pass Details

Date: 16 February 2026
Orbit: 902 x 2195 km, 67.6° (Epoch: 14 March)

Event Time Altitude Azimuth Distance (km) Brightness Sun altitude
Rises 21:08:32 0° 236° (SW) 4,523 ? -42.4°
Reaches altitude 10° 21:14:14 10° 265° (W) 3,213 ? -43.8°
Maximum altitude 21:16:36 12° 284° (WNW) 2,959 ? -44.4°
Drops below altitude 10° 21:18:50 10° 303° (WNW) 2,965 ? -44.9°
Enters shadow 21:20:32 - 316° (NW) 3,135 ? -45.3°
